Weather History for Langdon, ND

Change the Weather History Date:

Friday, January 18, 2013

  Actual Average (KDVL) Record (KDVL)
Temperature  
Mean Temperature 10 °F -  
Max Temperature 14 °F 17 °F 37 °F (1976)
Min Temperature 6 °F -3 °F -33 °F (1950)
Degree Days  
Heating Degree Days 55    
Moisture  
Dew Point 7 °F    
Average Humidity 90    
Maximum Humidity 100    
Minimum Humidity 79    
Precipitation  
Precipitation 0.05 in - - ()
Sea Level Pressure  
Sea Level Pressure 29.73 in    
Wind  
Wind Speed 13 mph (ESE)    
Max Wind Speed 22 mph    
Max Gust Speed 25 mph    
Visibility 8 miles    
Events Snow    
Averages and records for this station are not official NWS values.
T = Trace of Precipitation, MM = Missing Value Source: NWS Daily Summary

Daily Weather History Graph

Daily Weather History Graph

Search for Another Location

Airport:

Trip Planner

Search our weather history database for the weather conditions in past years. The results will help you decide how hot, cold, wet, or windy it might be!

Date:

Astronomy

Jan. 18, 2013 Rise Set
Actual Time 8:18 AM CST 5:10 PM CST
Civil Twilight 7:43 AM CST 5:45 PM CST
Nautical Twilight 7:04 AM CST 6:24 PM CST
Astronomical Twilight 6:26 AM CST 7:01 PM CST
Moon 11:15 AM CST (1/18) 12:41 AM CST (1/18)
Length of Visible Light 10h 02m
Length of Day
8h 51m
Waxing Crescent, 47% of the Moon is Illuminated
Jan 18
Waxing Crescent
Jan 18
First Quarter
Jan 26
Full
Feb 3
Last Quarter
Feb 10
New

Hourly Weather History & Observations

Time (CST) Temp. Windchill Dew Point Humidity Pressure Visibility Wind Dir Wind Speed Gust Speed Precip Events Conditions
12:15 AM 6.8 °F -10.7 °F 5.0 °F 92% 29.95 in 1.2 mi SE 15.0 mph - N/A Snow Light Snow
12:35 AM 6.8 °F -11.3 °F 5.0 °F 92% 29.94 in 1.2 mi SE 16.1 mph - 0.01 in Snow Light Snow
12:55 AM 6.8 °F -11.3 °F 5.0 °F 92% 29.93 in 1.2 mi SE 16.1 mph - 0.02 in Snow Light Snow
1:15 AM 6.8 °F -12.4 °F 5.0 °F 92% 29.91 in 1.5 mi SE 18.4 mph - N/A Snow Light Snow
1:35 AM 6.8 °F -12.9 °F 5.0 °F 92% 29.89 in 4.0 mi SE 19.6 mph - N/A Snow Light Snow
1:55 AM 6.8 °F -12.4 °F 5.0 °F 92% 29.88 in 3.0 mi SE 18.4 mph - N/A Snow Light Snow
2:15 AM 6.8 °F -13.4 °F 5.0 °F 92% 29.86 in 3.0 mi SE 20.7 mph - N/A Snow Light Snow
2:35 AM 6.8 °F -12.4 °F 5.0 °F 92% 29.85 in 4.0 mi SE 18.4 mph - N/A   Overcast
2:55 AM 6.8 °F -13.8 °F 5.0 °F 92% 29.83 in 5.0 mi ESE 21.9 mph 25.3 mph N/A   Overcast
3:15 AM 8.6 °F -11.0 °F 5.0 °F 85% 29.82 in 5.0 mi SE 20.7 mph - N/A   Overcast
3:35 AM 6.8 °F -13.4 °F 5.0 °F 92% 29.81 in 3.0 mi SE 20.7 mph - N/A   Overcast
3:55 AM 6.8 °F -13.4 °F 5.0 °F 92% 29.79 in 4.0 mi SE 20.7 mph - N/A   Mostly Cloudy
4:15 AM 6.8 °F -12.4 °F 5.0 °F 92% 29.80 in 3.0 mi SE 18.4 mph - N/A Snow Light Snow
4:35 AM 6.8 °F -12.4 °F 5.0 °F 92% 29.78 in 1.8 mi SE 18.4 mph - N/A Snow Light Snow
4:55 AM 6.8 °F -12.4 °F 5.0 °F 92% 29.76 in 3.0 mi SE 18.4 mph - N/A   Overcast
5:15 AM 6.8 °F -11.8 °F 5.0 °F 92% 29.76 in 10.0 mi SE 17.3 mph - N/A   Overcast
5:35 AM 8.6 °F -9.5 °F 5.0 °F 85% 29.74 in 10.0 mi SE 17.3 mph - N/A   Overcast
5:55 AM 6.8 °F -11.8 °F 5.0 °F 92% 29.73 in 5.0 mi SE 17.3 mph - N/A Snow Light Snow
6:15 AM 8.6 °F -8.9 °F 5.0 °F 85% 29.73 in 7.0 mi SE 16.1 mph - N/A   Mostly Cloudy
6:35 AM 8.6 °F -7.0 °F 5.0 °F 85% 29.73 in 5.0 mi SE 12.7 mph - N/A   Scattered Clouds
6:55 AM 8.6 °F -7.0 °F 5.0 °F 85% 29.72 in 5.0 mi SE 12.7 mph - N/A Snow Light Snow
7:15 AM 8.6 °F -8.9 °F 6.8 °F 92% 29.70 in 5.0 mi SE 16.1 mph - N/A Snow Light Snow
7:35 AM 8.6 °F -7.0 °F 6.8 °F 92% 29.70 in 1.8 mi ESE 12.7 mph - 0.01 in Snow Light Snow
7:55 AM 8.6 °F -7.7 °F 5.0 °F 85% 29.70 in 9.0 mi ESE 13.8 mph - 0.01 in Snow Light Snow
8:15 AM 8.6 °F -6.3 °F 5.0 °F 85% 29.70 in 10.0 mi ESE 11.5 mph - N/A   Overcast
8:35 AM 8.6 °F -6.3 °F 6.8 °F 92% 29.70 in 10.0 mi SE 11.5 mph - N/A   Overcast
8:55 AM 8.6 °F -4.7 °F 6.8 °F 92% 29.71 in 10.0 mi SE 9.2 mph - N/A   Overcast
9:15 AM 8.6 °F -3.7 °F 6.8 °F 92% 29.72 in 10.0 mi ESE 8.1 mph - N/A   Overcast
9:35 AM 8.6 °F -2.6 °F 6.8 °F 92% 29.72 in 10.0 mi East 6.9 mph - N/A   Overcast
9:55 AM 8.6 °F -2.6 °F 6.8 °F 92% 29.74 in 3.0 mi East 6.9 mph - 0.02 in Snow Light Snow
10:15 AM 8.6 °F -3.7 °F 6.8 °F 92% 29.74 in 10.0 mi ENE 8.1 mph - N/A   Overcast
10:35 AM 8.6 °F -3.7 °F 6.8 °F 92% 29.73 in 10.0 mi East 8.1 mph - N/A   Overcast
10:55 AM 8.6 °F -2.6 °F 6.8 °F 92% 29.73 in 10.0 mi East 6.9 mph - N/A   Overcast
11:15 AM 8.6 °F 0.1 °F 5.0 °F 85% 29.73 in 10.0 mi East 4.6 mph - N/A   Mostly Cloudy
11:35 AM 8.6 °F -1.3 °F 6.8 °F 92% 29.72 in 10.0 mi ESE 5.8 mph - N/A Snow Light Snow
11:55 AM 10.4 °F 2.2 °F 6.8 °F 85% 29.72 in 10.0 mi East 4.6 mph - N/A   Overcast
12:15 PM 10.4 °F - 6.8 °F 85% 29.73 in 10.0 mi Calm Calm - N/A   Overcast
12:35 PM 10.4 °F - 6.8 °F 85% 29.71 in 10.0 mi Calm Calm - N/A   Overcast
12:55 PM 10.4 °F - 6.8 °F 85% 29.70 in 10.0 mi Calm Calm - N/A   Overcast
1:15 PM 10.4 °F - 6.8 °F 85% 29.70 in 10.0 mi Calm Calm - N/A Snow Light Snow
1:35 PM 10.4 °F - 6.8 °F 85% 29.69 in 10.0 mi Calm Calm - N/A   Mostly Cloudy
1:55 PM 10.4 °F - 6.8 °F 85% 29.68 in 10.0 mi Calm Calm - N/A   Overcast
2:15 PM 10.4 °F - 6.8 °F 85% 29.69 in 7.0 mi Calm Calm - N/A Snow Light Snow
2:35 PM 12.2 °F - 8.6 °F 85% 29.68 in 10.0 mi Calm Calm - N/A   Overcast
2:55 PM 12.2 °F - 8.6 °F 85% 29.68 in 10.0 mi Calm Calm - N/A   Overcast
3:15 PM 12.2 °F - 8.6 °F 85% 29.68 in 10.0 mi Calm Calm - N/A   Overcast
3:35 PM 14.0 °F - 8.6 °F 79% 29.69 in 10.0 mi Calm Calm - N/A   Overcast
3:55 PM 14.0 °F - 8.6 °F 79% 29.69 in 10.0 mi Calm Calm - N/A   Overcast
4:15 PM 14.0 °F - 8.6 °F 79% 29.69 in 10.0 mi Calm Calm - N/A   Overcast
4:35 PM 14.0 °F - 10.4 °F 86% 29.69 in 10.0 mi Calm Calm - N/A   Overcast
4:55 PM 14.0 °F - 10.4 °F 86% 29.70 in 10.0 mi Calm Calm - N/A   Overcast
5:15 PM 14.0 °F 3.9 °F 10.4 °F 86% 29.69 in 10.0 mi East 6.9 mph - N/A   Overcast
5:35 PM 14.0 °F 2.0 °F 10.4 °F 86% 29.68 in 10.0 mi East 9.2 mph - N/A   Overcast
5:55 PM 14.0 °F 5.1 °F 10.4 °F 86% 29.70 in 10.0 mi East 5.8 mph - N/A   Overcast
6:15 PM 14.0 °F 3.9 °F 10.4 °F 86% 29.69 in 10.0 mi East 6.9 mph - N/A   Overcast
6:35 PM 14.0 °F 2.9 °F 10.4 °F 86% 29.69 in 10.0 mi East 8.1 mph - N/A   Overcast
6:55 PM 14.0 °F 0.5 °F 10.4 °F 86% 29.69 in 10.0 mi ESE 11.5 mph - N/A   Overcast
7:15 PM 12.2 °F -0.2 °F 10.4 °F 92% 29.69 in 10.0 mi East 9.2 mph - N/A   Overcast
7:35 PM 12.2 °F -1.0 °F 10.4 °F 92% 29.69 in 10.0 mi East 10.4 mph - N/A   Overcast
7:55 PM 12.2 °F -1.0 °F 10.4 °F 92% 29.69 in 10.0 mi East 10.4 mph - N/A   Overcast
8:15 PM 10.4 °F -4.1 °F 10.4 °F 100% 29.68 in 10.0 mi ESE 11.5 mph - N/A   Overcast
8:35 PM 10.4 °F -4.8 °F 8.6 °F 92% 29.67 in 10.0 mi ESE 12.7 mph - N/A   Overcast
8:55 PM 10.4 °F -4.1 °F 8.6 °F 92% 29.66 in 10.0 mi ESE 11.5 mph - N/A   Overcast
9:15 PM 10.4 °F -3.3 °F 8.6 °F 92% 29.67 in 10.0 mi ESE 10.4 mph - N/A   Overcast
9:35 PM 10.4 °F -4.1 °F 8.6 °F 92% 29.64 in 10.0 mi ESE 11.5 mph - N/A Snow Light Snow
9:55 PM 10.4 °F -4.1 °F 8.6 °F 92% 29.64 in 10.0 mi SE 11.5 mph - N/A   Overcast
10:15 PM 10.4 °F -4.8 °F 8.6 °F 92% 29.64 in 8.0 mi SE 12.7 mph - N/A   Mostly Cloudy
10:35 PM 10.4 °F -4.8 °F 8.6 °F 92% 29.63 in 9.0 mi SE 12.7 mph - N/A   Mostly Cloudy
10:55 PM 10.4 °F -3.3 °F 10.4 °F 100% 29.63 in 10.0 mi SSE 10.4 mph - N/A   Overcast
11:15 PM 10.4 °F -1.5 °F 10.4 °F 100% 29.63 in 5.0 mi SSE 8.1 mph - N/A   Overcast
11:35 PM 10.4 °F -2.4 °F 10.4 °F 100% 29.62 in 0.8 mi South 9.2 mph - N/A   Overcast
11:55 PM 10.4 °F -2.4 °F 10.4 °F 100% 29.61 in 1.8 mi South 9.2 mph - N/A   Overcast